Total_Precipitation_Accumulation
0.49 0.54 0.61 0.63 0.64 0.68 0.75 0.80 0.79 0.74 0.77 0.76 0.54 0.41 0.39 0.40 0.41 0.38 0.43 0.28 0.12 0.08 0.07 0.08 0.08 0.11 0.19 0.35 0.53 0.66 0.86 0.99 1.02 1.00 0.93 0.90 0.90 0.92
0.55 0.63 0.67 0.66 0.62 0.67 0.73 0.81 0.86 0.82 0.73 0.61 0.47 0.38 0.36 0.37 0.35 0.29 0.28 0.22 0.12 0.08 0.08 0.08 0.08 0.10 0.15 0.27 0.41 0.54 0.69 0.79 0.89 0.93 0.93 0.91 0.89 0.90
0.55 0.60 0.61 0.59 0.61 0.64 0.68 0.71 0.74 0.77 0.66 0.53 0.43 0.41 0.41 0.46 0.42 0.32 0.24 0.20 0.16 0.11 0.08 0.06 0.07 0.12 0.19 0.26 0.36 0.45 0.51 0.59 0.71 0.82 0.89 0.91 0.90 0.87
0.61 0.61 0.57 0.51 0.52 0.51 0.55 0.57 0.60 0.66 0.57 0.46 0.42 0.40 0.43 0.48 0.48 0.40 0.31 0.24 0.22 0.14 0.09 0.07 0.08 0.09 0.12 0.15 0.24 0.37 0.47 0.52 0.55 0.60 0.66 0.74 0.81 0.82
0.58 0.54 0.50 0.47 0.45 0.42 0.42 0.39 0.38 0.44 0.45 0.43 0.45 0.45 0.44 0.41 0.41 0.42 0.39 0.37 0.29 0.20 0.13 0.09 0.09 0.10 0.10 0.11 0.16 0.25 0.38 0.51 0.56 0.59 0.62 0.67 0.73 0.76
0.48 0.44 0.44 0.44 0.42 0.39 0.39 0.33 0.29 0.33 0.39 0.38 0.40 0.42 0.42 0.39 0.39 0.43 0.45 0.48 0.39 0.29 0.24 0.19 0.16 0.12 0.12 0.10 0.11 0.16 0.27 0.43 0.58 0.63 0.67 0.75 0.81 0.81
0.39 0.36 0.37 0.35 0.35 0.36 0.33 0.28 0.23 0.23 0.23 0.26 0.28 0.28 0.29 0.30 0.31 0.34 0.43 0.54 0.50 0.39 0.36 0.36 0.34 0.30 0.26 0.20 0.12 0.10 0.17 0.32 0.52 0.66 0.72 0.81 0.91 0.96
0.29 0.28 0.27 0.25 0.29 0.30 0.26 0.23 0.19 0.15 0.13 0.16 0.17 0.20 0.22 0.23 0.24 0.32 0.44 0.50 0.58 0.59 0.55 0.54 0.51 0.47 0.40 0.30 0.20 0.12 0.10 0.19 0.32 0.48 0.63 0.77 0.87 1.00
0.19 0.19 0.17 0.18 0.22 0.23 0.20 0.15 0.14 0.12 0.10 0.13 0.13 0.12 0.13 0.16 0.19 0.29 0.45 0.61 0.71 0.76 0.73 0.72 0.60 0.53 0.49 0.41 0.30 0.18 0.13 0.12 0.18 0.26 0.36 0.52 0.65 0.77
0.13 0.13 0.14 0.14 0.16 0.16 0.13 0.10 0.09 0.09 0.10 0.10 0.09 0.08 0.07 0.09 0.13 0.17 0.25 0.40 0.59 0.70 0.76 0.86 0.84 0.75 0.70 0.62 0.51 0.33 0.22 0.17 0.17 0.19 0.22 0.28 0.40 0.52
0.10 0.11 0.10 0.10 0.13 0.11 0.08 0.08 0.08 0.07 0.07 0.07 0.05 0.04 0.03 0.02 0.03 0.04 0.04 0.07 0.16 0.26 0.32 0.51 0.70 0.79 0.85 0.84 0.73 0.58 0.42 0.30 0.25 0.27 0.28 0.29 0.35 0.43
0.11 0.12 0.12 0.10 0.09 0.07 0.07 0.07 0.06 0.04 0.04 0.04 0.02 0.01 0.01 0.01 0.00 0.01 0.02 0.02 0.04 0.08 0.09 0.16 0.28 0.41 0.58 0.66 0.67 0.64 0.58 0.53 0.46 0.37 0.31 0.31 0.41 0.44
0.11 0.14 0.13 0.10 0.07 0.06 0.06 0.06 0.05 0.02 0.02 0.02 0.01 0.01 0.00 0.00 0.00 0.00 0.01 0.03 0.06 0.09 0.10 0.12 0.16 0.20 0.29 0.40 0.48 0.52 0.56 0.59 0.57 0.54 0.48 0.43 0.45 0.51
0.11 0.12 0.12 0.09 0.05 0.04 0.04 0.04 0.02 0.01 0.01 0.01 0.01 0.00 0.00 0.00 0.00 0.00 0.01 0.02 0.04 0.08 0.09 0.10 0.17 0.18 0.20 0.25 0.31 0.34 0.41 0.53 0.64 0.72 0.68 0.63 0.60 0.65
0.12 0.12 0.10 0.07 0.04 0.03 0.03 0.02 0.02 0.01 0.01 0.01 0.01 0.00 0.00 0.00 0.00 0.00 0.00 0.01 0.03 0.04 0.03 0.04 0.10 0.17 0.19 0.22 0.24 0.26 0.30 0.41 0.51 0.66 0.79 0.83 0.80 0.78
0.13 0.09 0.07 0.05 0.03 0.02 0.01 0.01 0.01 0.01 0.01 0.01 0.00 0.00 0.00 0.00 0.00 0.00 0.00 0.00 0.01 0.02 0.01 0.02 0.05 0.09 0.16 0.20 0.23 0.26 0.29 0.35 0.39 0.46 0.64 0.86 1.02 1.09
0.11 0.06 0.04 0.03 0.02 0.01 0.01 0.00 0.00 0.00 0.00 0.00 0.00 0.00 0.00 0.00 0.00 0.00 0.00 0.00 0.00 0.00 0.01 0.01 0.02 0.05 0.08 0.09 0.17 0.23 0.27 0.30 0.29 0.29 0.36 0.55 0.80 1.00
0.09 0.05 0.03 0.02 0.01 0.01 0.00 0.00 0.00 0.00 0.00 0.00 0.00 0.00 0.00 0.00 0.00 0.00 0.00 0.00 0.00 0.01 0.01 0.01 0.02 0.03 0.06 0.09 0.06 0.10 0.15 0.18 0.20 0.24 0.31 0.35 0.46 0.57
0.06 0.03 0.02 0.01 0.01 0.00 0.00 0.00 0.00 0.00 0.00 0.00 0.00 0.00 0.00 0.00 0.00 0.00 0.00 0.00 0.00 0.00 0.01 0.01 0.02 0.02 0.04 0.07 0.13 0.07 0.05 0.07 0.10 0.18 0.29 0.29 0.31 0.33
0.04 0.02 0.01 0.00 0.00 0.00 0.00 0.00 0.00 0.00 0.00 0.00 0.00 0.00 0.00 0.00 0.00 0.00 0.00 0.00 0.00 0.00 0.00 0.00 0.01 0.02 0.03 0.05 0.08 0.12 0.11 0.07 0.07 0.10 0.17 0.21 0.22 0.18
0.02 0.01 0.00 0.00 0.00 0.00 0.00 0.00 0.00 0.00 0.00 0.00 0.00 0.00 0.00 0.00 0.00 0.00 0.00 0.00 0.00 0.00 0.00 0.00 0.00 0.01 0.02 0.04 0.07 0.09 0.12 0.12 0.11 0.11 0.12 0.16 0.20 0.23
0.01 0.00 0.00 0.00 0.00 0.00 0.00 0.00 0.00 0.00 0.00 0.00 0.00 0.00 0.00 0.00 0.00 0.00 0.00 0.00 0.00 0.00 0.00 0.00 0.00 0.01 0.03 0.06 0.08 0.08 0.09 0.13 0.15 0.13 0.12 0.11 0.13 0.16
0.00 0.00 0.00 0.00 0.00 0.00 0.00 0.00 0.00 0.00 0.00 0.00 0.00 0.00 0.00 0.00 0.00 0.00 0.00 0.00 0.00 0.00 0.00 0.00 0.00 0.00 0.01 0.03 0.06 0.08 0.10 0.13 0.18 0.23 0.23 0.14 0.06 0.04